958  
ASUS43 KEAX 131415  
RWREAX  
 
WEATHER ROUNDUP FOR EASTERN KANSAS AND NORTHWEST MISSOURI  
NATIONAL WEATHER SERVICE KANSAS CITY/PLEASANT HILL MO  
900 AM CDT THU AUG 13 2020  
 
KSZ040-057-103>105-MOZ028-029-037-043-131500-   
..KANSAS CITY METROPOLITAN AREA
 
 
 
CITY SKY/WX TMP DP RH WIND PRES REMARKS
 
K.C. INTL CLOUDY 76 72 87 SE5 30.02R  
K.C. DOWNTOWN CLOUDY 77 70 79 CALM 30.01R  
LEES SUMMIT CLOUDY 77 70 79 SE6 30.03S  
OLATHE - IXD CLOUDY 73 70 90 SE3 30.04R  
OLATHE - OJC CLOUDY 73 71 93 S3 30.03R  
LAWRENCE CLOUDY 74 72 93 CALM 30.03R  
 

 
 
MOZ001>008-011>017-020>025-030>033-038>040-044>046-053-054-131500-   
..NORTHERN AND CENTRAL MISSOURI
 
 
 
CITY SKY/WX TMP DP RH WIND PRES REMARKS
 
ST. JOSEPH PTSUNNY 78 71 79 SE5 30.02R  
MOSBY CLOUDY 75 70 83 CALM 30.02  
HARRISONVILLE CLOUDY 77 72 83 SE5 30.05R  
WHITEMAN AFB MOSUNNY 75 71 88 CALM 30.00  
CLINTON NOT AVBL  
SEDALIA MOSUNNY 76 71 85 SE3 30.04S  
MARSHALL MOSUNNY 73 72 94 SE5 30.05S  
CHILLICOTHE N/A 77 73 87 SE6 30.05S  
MOBERLY SUNNY 77 68 73 SE3 30.07R  
KIRKSVILLE SUNNY 75 72 90 SE5 30.08R  
 

 
 
MOZ041-047>049-056>058-063>065-088>090-097-131500-   
..EASTERN AND SOUTHERN MISSOURI
 
 
 
CITY SKY/WX TMP DP RH WIND PRES REMARKS
 
ST. LOUIS INTL PTSUNNY 79 73 82 E7 30.06R  
SPIRIT OF STL CLOUDY 78 72 81 CALM 30.05R  
COLUMBIA SUNNY 77 71 82 CALM 30.05S  
JEFFERSON CITY SUNNY 77 70 79 E7 30.04R  
MEXICO MOSUNNY 73 73 100 SE3 30.06S  
HANNIBAL SUNNY 79 70 73 CALM 30.07S  
ROLLA SUNNY 75 70 84 E6 30.06S  
LEBANON FOG 72 70 94 CALM 30.07R VSB 3/4  
OSAGE BEACH MOSUNNY 75 71 87 SE3 30.06R  
SPRINGFIELD PTSUNNY 74 71 91 SE10 30.04R  
BRANSON CLOUDY 72 72 100 SE7 30.06R FOG  
JOPLIN PTSUNNY 76 70 82 S6 30.03R  
WEST PLAINS CLOUDY 72 71 97 CALM 30.07R FOG  
SIKESTON CLOUDY 77 73 88 SE3 30.02F  
 

 
 
IAZ060-094-KSZ022-034>040-054-083-096-NEZ052-066-093-131500-    
..KANSAS...SOUTHEAST NEBRASKA AND IOWA
 
 
 
CITY SKY/WX TMP DP RH WIND PRES REMARKS
 
TOPEKA CLOUDY 74 70 87 CALM 30.02R  
MANHATTAN LGT RAIN 70 67 90 N17G33 30.00R  
EMPORIA CLOUDY 71 70 96 VRB3 30.02R  
CHANUTE LGT RAIN 75 71 87 SW5 30.03R  
SALINA MOSUNNY 75 64 68 SE10 30.02R  
WICHITA CLOUDY 75 67 76 N9 30.02R  
OMAHA MOSUNNY 79 71 76 S12 30.00R  
LINCOLN SUNNY 77 69 76 S14 30.00R  
FALLS CITY MOSUNNY 76 73 91 E8 30.00S  
LAMONI MOSUNNY 74 70 87 S5 30.06R  
DES MOINES MOSUNNY 77 71 82 SE10 30.04S  
 

 
 
 
 
CLICK HERE TO GO TO PREVIOUS BULLETINS.

The Nexlab MO Page
The Nexlab KS Page Main Text Page